,,PressureMeas_1m,,PRMeasQMR101_1,,RHStat155_1m_1,,SRMeasQMS101R_1m,,TAStat155_1m_1,,GenWind_1,,GenWind_1,
2019-10-31, 07:00:06,VALID,917.02,VALID,0.0,VALID,99.918,VALID,71.087,VALID,20.381,INVALID,360.0,VALID,0.0,
2019-10-31, 07:01:06,VALID,917.032,VALID,0.0,VALID,99.919,VALID,69.735,VALID,20.368,INVALID,360.0,VALID,0.0,
2019-10-31, 07:02:06,VALID,917.062,VALID,0.0,VALID,99.917,VALID,64.274,VALID,20.399,INVALID,360.0,VALID,0.0,
2019-10-31, 07:03:06,VALID,917.089,VALID,0.0,VALID,99.916,VALID,58.251,VALID,20.414,INVALID,360.0,VALID,0.0,
2019-10-31, 07:04:06,VALID,917.103,VALID,0.0,VALID,99.92,VALID,55.577,VALID,20.406,INVALID,360.0,VALID,0.0,
2019-10-31, 07:05:06,VALID,917.134,VALID,0.0,VALID,99.922,VALID,53.605,VALID,20.413,INVALID,360.0,VALID,0.0,
2019-10-31, 07:06:06,VALID,917.155,VALID,0.0,VALID,99.92,VALID,52.757,VALID,20.46,INVALID,360.0,VALID,0.0,
2019-10-31, 07:07:06,VALID,917.173,VALID,0.0,VALID,99.922,VALID,50.086,VALID,20.512,INVALID,360.0,VALID,0.0,
2019-10-31, 07:08:06,VALID,917.154,VALID,0.0,VALID,99.918,VALID,45.084,VALID,20.554,INVALID,360.0,VALID,0.0,
2019-10-31, 07:09:06,VALID,917.145,VALID,0.0,VALID,99.919,VALID,42.885,VALID,20.588,INVALID,360.0,VALID,0.0,
2019-10-31, 07:10:06,VALID,917.161,VALID,0.0,VALID,99.919,VALID,45.631,VALID,20.564,INVALID,360.0,VALID,0.0,
2019-10-31, 07:11:06,VALID,917.151,VALID,0.0,VALID,99.918,VALID,46.217,VALID,20.603,INVALID,360.0,VALID,0.0,
2019-10-31, 07:12:06,VALID,917.163,VALID,0.0,VALID,99.916,VALID,48.737,VALID,20.628,INVALID,360.0,VALID,0.0,
2019-10-31, 07:13:06,VALID,917.178,VALID,0.0,VALID,99.918,VALID,54.654,VALID,20.614,INVALID,360.0,VALID,0.0,
2019-10-31, 07:14:06,VALID,917.18,VALID,0.0,VALID,99.917,VALID,53.367,VALID,20.626,INVALID,360.0,VALID,0.0,
2019-10-31, 07:15:06,VALID,917.183,VALID,0.0,VALID,99.918,VALID,50.803,VALID,20.647,INVALID,360.0,VALID,0.0,
2019-10-31, 07:16:06,VALID,917.19,VALID,0.0,VALID,99.918,VALID,45.935,VALID,20.686,INVALID,360.0,VALID,0.0,
2019-10-31, 07:17:06,VALID,917.213,VALID,0.0,VALID,99.919,VALID,43.056,VALID,20.675,INVALID,360.0,VALID,0.0,
2019-10-31, 07:18:06,VALID,917.232,VALID,0.0,VALID,99.921,VALID,40.312,VALID,20.583,INVALID,360.0,VALID,0.0,
2019-10-31, 07:19:06,VALID,917.242,VALID,0.0,VALID,99.921,VALID,42.123,VALID,20.484,INVALID,360.0,VALID,0.0,
2019-10-31, 07:20:06,VALID,917.262,VALID,0.0,VALID,99.917,VALID,43.759,VALID,20.523,INVALID,360.0,VALID,0.0,
2019-10-31, 07:21:06,VALID,917.259,VALID,0.0,VALID,99.919,VALID,42.757,VALID,20.56,INVALID,360.0,VALID,0.0,
2019-10-31, 07:22:06,VALID,917.281,VALID,0.0,VALID,99.921,VALID,41.57,VALID,20.494,INVALID,360.0,VALID,0.0,
2019-10-31, 07:23:06,VALID,917.29,VALID,0.0,VALID,99.918,VALID,43.244,VALID,20.434,INVALID,360.0,VALID,0.0,
2019-10-31, 07:24:06,VALID,917.306,VALID,0.0,VALID,99.918,VALID,45.381,VALID,20.45,VALID,343.0,VALID,0.0,
2019-10-31, 07:25:06,VALID,917.321,VALID,0.0,VALID,99.919,VALID,48.317,VALID,20.489,INVALID,360.0,VALID,0.0,
2019-10-31, 07:26:06,VALID,917.325,VALID,0.0,VALID,99.916,VALID,49.699,VALID,20.51,INVALID,360.0,VALID,0.0,
2019-10-31, 07:27:06,VALID,917.34,VALID,0.0,VALID,99.919,VALID,51.492,VALID,20.527,INVALID,360.0,VALID,0.0,
2019-10-31, 07:28:06,VALID,917.336,VALID,0.0,VALID,99.916,VALID,56.023,VALID,20.516,INVALID,360.0,VALID,0.0,
2019-10-31, 07:29:06,VALID,917.329,VALID,0.0,VALID,99.918,VALID,63.998,VALID,20.547,INVALID,360.0,VALID,0.0,
2019-10-31, 07:30:06,VALID,917.335,VALID,0.0,VALID,99.919,VALID,65.985,VALID,20.514,INVALID,360.0,VALID,0.0,
2019-10-31, 07:31:06,VALID,917.345,VALID,0.0,VALID,99.916,VALID,66.673,VALID,20.52,INVALID,360.0,VALID,0.0,
2019-10-31, 07:32:06,VALID,917.359,VALID,0.0,VALID,99.916,VALID,69.541,VALID,20.556,INVALID,360.0,VALID,0.0,
2019-10-31, 07:33:06,VALID,917.377,VALID,0.0,VALID,99.919,VALID,73.076,VALID,20.594,INVALID,360.0,VALID,0.0,
2019-10-31, 07:34:06,VALID,917.406,VALID,0.0,VALID,99.917,VALID,73.425,VALID,20.626,INVALID,360.0,VALID,0.0,
2019-10-31, 07:35:06,VALID,917.435,VALID,0.0,VALID,99.923,VALID,69.931,VALID,20.681,INVALID,360.0,VALID,0.0,
2019-10-31, 07:36:06,VALID,917.453,VALID,0.0,VALID,99.922,VALID,62.848,VALID,20.716,INVALID,360.0,VALID,0.0,
2019-10-31, 07:37:06,VALID,917.461,VALID,0.0,VALID,99.919,VALID,57.847,VALID,20.621,INVALID,360.0,VALID,0.0,
2019-10-31, 07:38:06,VALID,917.463,VALID,0.0,VALID,99.921,VALID,60.919,VALID,20.601,INVALID,360.0,VALID,0.0,
2019-10-31, 07:39:06,VALID,917.488,VALID,0.0,VALID,99.916,VALID,72.541,VALID,20.624,INVALID,360.0,VALID,0.0,
2019-10-31, 07:40:06,VALID,917.5,VALID,0.0,VALID,99.92,VALID,85.809,VALID,20.695,INVALID,360.0,VALID,0.0,
2019-10-31, 07:41:06,VALID,917.51,VALID,0.0,VALID,99.921,VALID,93.574,VALID,20.74,INVALID,360.0,VALID,0.0,
2019-10-31, 07:42:06,VALID,917.536,VALID,0.0,VALID,99.922,VALID,99.922,VALID,20.734,INVALID,360.0,VALID,0.0,
2019-10-31, 07:43:06,VALID,917.542,VALID,0.0,VALID,99.92,VALID,110.512,VALID,20.729,INVALID,360.0,VALID,0.0,
2019-10-31, 07:44:06,VALID,917.552,VALID,0.0,VALID,99.922,VALID,121.073,VALID,20.733,INVALID,360.0,VALID,0.0,
2019-10-31, 07:45:06,VALID,917.56,VALID,0.0,VALID,99.921,VALID,127.596,VALID,20.752,VALID,65.0,VALID,0.0,
2019-10-31, 07:46:06,VALID,917.571,VALID,0.0,VALID,99.922,VALID,127.236,VALID,20.846,INVALID,360.0,VALID,0.0,
2019-10-31, 07:47:06,VALID,917.573,VALID,0.0,VALID,99.925,VALID,116.46,VALID,20.916,INVALID,360.0,VALID,0.0,
2019-10-31, 07:48:06,VALID,917.591,VALID,0.0,VALID,99.921,VALID,108.546,VALID,20.98,INVALID,360.0,VALID,0.0,
2019-10-31, 07:49:06,VALID,917.581,VALID,0.0,VALID,99.919,VALID,119.973,VALID,20.995,INVALID,360.0,VALID,0.0,
2019-10-31, 07:50:06,VALID,917.591,VALID,0.0,VALID,99.921,VALID,132.892,VALID,20.854,INVALID,360.0,VALID,0.0,
2019-10-31, 07:51:06,VALID,917.601,VALID,0.0,VALID,99.921,VALID,119.116,VALID,20.831,INVALID,360.0,VALID,0.0,
2019-10-31, 07:52:06,VALID,917.595,VALID,0.0,VALID,99.923,VALID,107.978,VALID,20.787,INVALID,360.0,VALID,0.0,
2019-10-31, 07:53:06,VALID,917.596,VALID,0.0,VALID,99.922,VALID,104.32,VALID,20.83,INVALID,360.0,VALID,0.0,
2019-10-31, 07:54:06,VALID,917.601,VALID,0.0,VALID,99.92,VALID,122.733,VALID,20.889,INVALID,360.0,VALID,0.0,
2019-10-31, 07:55:06,VALID,917.591,VALID,0.0,VALID,99.921,VALID,185.019,VALID,20.983,INVALID,360.0,VALID,0.0,
2019-10-31, 07:56:06,VALID,917.609,VALID,0.0,VALID,99.922,VALID,219.347,VALID,20.898,INVALID,360.0,VALID,0.0,
2019-10-31, 07:57:06,VALID,917.616,VALID,0.0,VALID,99.922,VALID,220.231,VALID,20.886,INVALID,360.0,VALID,0.0,
2019-10-31, 07:58:06,VALID,917.646,VALID,0.0,VALID,99.924,VALID,208.966,VALID,21.021,INVALID,360.0,VALID,0.0,
2019-10-31, 07:59:06,VALID,917.672,VALID,0.0,VALID,99.921,VALID,275.448,VALID,21.104,INVALID,360.0,VALID,0.0,
2019-10-31, 08:00:06,VALID,917.697,VALID,0.0,VALID,99.923,VALID,289.911,VALID,21.02,INVALID,360.0,VALID,0.0,
2019-10-31, 08:01:06,VALID,917.714,VALID,0.0,VALID,99.905,VALID,287.32,VALID,20.963,INVALID,360.0,VALID,0.0,
2019-10-31, 08:02:06,VALID,917.725,VALID,0.0,VALID,99.826,VALID,296.135,VALID,20.969,INVALID,360.0,VALID,0.0,
2019-10-31, 08:03:06,VALID,917.736,VALID,0.0,VALID,99.566,VALID,267.006,VALID,21.002,INVALID,360.0,VALID,0.0,
2019-10-31, 08:04:06,VALID,917.742,VALID,0.0,VALID,99.846,VALID,254.352,VALID,21.244,INVALID,360.0,VALID,0.0,
2019-10-31, 08:05:06,VALID,917.761,VALID,0.0,VALID,99.714,VALID,266.713,VALID,21.317,INVALID,360.0,VALID,0.0,
2019-10-31, 08:06:06,VALID,917.772,VALID,0.0,VALID,99.678,VALID,265.993,VALID,21.469,INVALID,360.0,VALID,0.0,
2019-10-31, 08:07:06,VALID,917.791,VALID,0.0,VALID,99.639,VALID,253.274,VALID,21.603,INVALID,360.0,VALID,0.0,
2019-10-31, 08:08:06,VALID,917.808,VALID,0.0,VALID,99.531,VALID,289.26,VALID,21.743,INVALID,360.0,VALID,0.0,
2019-10-31, 08:09:06,VALID,917.814,VALID,0.0,VALID,99.291,VALID,372.895,VALID,21.828,INVALID,360.0,VALID,0.0,
2019-10-31, 08:10:06,VALID,917.816,VALID,0.0,VALID,98.411,VALID,414.219,VALID,21.807,INVALID,360.0,VALID,0.0,
2019-10-31, 08:11:06,VALID,917.861,VALID,0.0,VALID,97.638,VALID,401.483,VALID,21.847,INVALID,360.0,VALID,0.0,
2019-10-31, 08:12:06,VALID,917.873,VALID,0.0,VALID,96.956,VALID,406.719,VALID,21.866,INVALID,360.0,VALID,0.0,
2019-10-31, 08:13:06,VALID,917.9,VALID,0.0,VALID,97.482,VALID,378.039,VALID,22.008,INVALID,360.0,VALID,0.0,
2019-10-31, 08:14:06,VALID,917.94,VALID,0.0,VALID,97.288,VALID,390.341,VALID,22.048,INVALID,360.0,VALID,0.0,
2019-10-31, 08:15:06,VALID,917.964,VALID,0.0,VALID,96.645,VALID,368.292,VALID,22.079,INVALID,360.0,VALID,0.0,
2019-10-31, 08:16:06,VALID,917.991,VALID,0.0,VALID,96.614,VALID,298.561,VALID,22.139,INVALID,360.0,VALID,0.0,
2019-10-31, 08:17:06,VALID,918.023,VALID,0.0,VALID,95.804,VALID,253.666,VALID,22.15,INVALID,360.0,VALID,0.0,
2019-10-31, 08:18:06,VALID,918.039,VALID,0.0,VALID,96.16,VALID,261.105,VALID,22.257,INVALID,360.0,VALID,0.0,
2019-10-31, 08:19:06,VALID,918.046,VALID,0.0,VALID,96.546,VALID,309.726,VALID,22.339,INVALID,360.0,VALID,0.0,
2019-10-31, 08:20:06,VALID,918.066,VALID,0.0,VALID,96.384,VALID,369.651,VALID,22.428,INVALID,360.0,VALID,0.0,
2019-10-31, 08:21:06,VALID,918.069,VALID,0.0,VALID,96.564,VALID,375.413,VALID,22.502,INVALID,360.0,VALID,0.0,
2019-10-31, 08:22:06,VALID,918.08,VALID,0.0,VALID,93.894,VALID,337.992,VALID,22.447,VALID,270.0,VALID,0.0,
2019-10-31, 08:23:06,VALID,918.101,VALID,0.0,VALID,94.371,VALID,333.002,VALID,22.523,INVALID,360.0,VALID,0.0,
2019-10-31, 08:24:06,VALID,918.101,VALID,0.0,VALID,94.26,VALID,319.396,VALID,22.574,INVALID,360.0,VALID,0.0,
2019-10-31, 08:25:06,VALID,918.091,VALID,0.0,VALID,95.24,VALID,326.15,VALID,22.659,INVALID,360.0,VALID,0.0,
2019-10-31, 08:26:06,VALID,918.12,VALID,0.0,VALID,94.121,VALID,344.658,VALID,22.646,VALID,269.0,VALID,0.0,
2019-10-31, 08:27:06,VALID,918.141,VALID,0.0,VALID,92.898,VALID,319.042,VALID,22.609,VALID,308.0,VALID,0.0,
2019-10-31, 08:28:06,VALID,918.149,VALID,0.0,VALID,90.192,VALID,300.99,VALID,22.457,INVALID,360.0,VALID,0.0,
2019-10-31, 08:29:06,VALID,918.167,VALID,0.0,VALID,90.976,VALID,278.01,VALID,22.22,INVALID,360.0,VALID,0.0,
2019-10-31, 08:30:06,VALID,918.182,VALID,0.0,VALID,92.235,VALID,274.761,VALID,22.073,INVALID,360.0,VALID,0.0,
2019-10-31, 08:31:06,VALID,918.198,VALID,0.0,VALID,93.038,VALID,277.886,VALID,22.061,INVALID,360.0,VALID,0.0,
2019-10-31, 08:32:06,VALID,918.203,VALID,0.0,VALID,93.357,VALID,289.791,VALID,22.107,VALID,333.0,VALID,0.0,
2019-10-31, 08:33:06,VALID,918.205,VALID,0.0,VALID,94.702,VALID,322.132,VALID,22.269,INVALID,360.0,VALID,0.0,
2019-10-31, 08:34:06,VALID,918.207,VALID,0.0,VALID,95.111,VALID,280.587,VALID,22.453,INVALID,360.0,VALID,0.0,
2019-10-31, 08:35:06,VALID,918.179,VALID,0.0,VALID,94.391,VALID,287.414,VALID,22.589,INVALID,360.0,VALID,0.0,
2019-10-31, 08:36:06,VALID,918.165,VALID,0.0,VALID,93.863,VALID,361.322,VALID,22.642,INVALID,360.0,VALID,0.0,
2019-10-31, 08:37:06,VALID,918.18,VALID,0.0,VALID,94.163,VALID,340.368,VALID,22.699,INVALID,360.0,VALID,0.0,
2019-10-31, 08:38:06,VALID,918.174,VALID,0.0,VALID,94.174,VALID,273.883,VALID,22.84,INVALID,360.0,VALID,0.0,
2019-10-31, 08:39:06,VALID,918.186,VALID,0.0,VALID,92.988,VALID,256.201,VALID,22.886,VALID,257.0,VALID,0.0,
2019-10-31, 08:40:06,VALID,918.19,VALID,0.0,VALID,92.482,VALID,279.794,VALID,22.842,VALID,258.0,VALID,0.0,
2019-10-31, 08:41:06,VALID,918.194,VALID,0.0,VALID,93.119,VALID,292.051,VALID,22.881,INVALID,360.0,VALID,0.0,
2019-10-31, 08:42:06,VALID,918.195,VALID,0.0,VALID,93.383,VALID,320.767,VALID,23.024,INVALID,360.0,VALID,0.0,
2019-10-31, 08:43:06,VALID,918.194,VALID,0.0,VALID,91.293,VALID,394.54,VALID,23.021,INVALID,360.0,VALID,0.0,
2019-10-31, 08:44:06,VALID,918.183,VALID,0.0,VALID,92.117,VALID,419.46,VALID,22.933,INVALID,360.0,VALID,0.0,
2019-10-31, 08:45:06,VALID,918.167,VALID,0.0,VALID,92.807,VALID,402.087,VALID,22.917,INVALID,360.0,VALID,0.0,
2019-10-31, 08:46:06,VALID,918.18,VALID,0.0,VALID,92.925,VALID,353.295,VALID,22.901,INVALID,360.0,VALID,0.0,
2019-10-31, 08:47:06,VALID,918.169,VALID,0.0,VALID,92.258,VALID,361.477,VALID,22.963,INVALID,360.0,VALID,0.0,
2019-10-31, 08:48:06,VALID,918.185,VALID,0.0,VALID,92.324,VALID,389.64,VALID,23.025,INVALID,360.0,VALID,0.0,
2019-10-31, 08:49:06,VALID,918.214,VALID,0.0,VALID,92.124,VALID,353.75,VALID,23.06,INVALID,360.0,VALID,0.0,
2019-10-31, 08:50:06,VALID,918.223,VALID,0.0,VALID,92.078,VALID,384.64,VALID,23.211,INVALID,360.0,VALID,0.0,
2019-10-31, 08:51:06,VALID,918.22,VALID,0.0,VALID,91.156,VALID,369.478,VALID,23.352,INVALID,360.0,VALID,0.0,
2019-10-31, 08:52:06,VALID,918.221,VALID,0.0,VALID,92.009,VALID,323.496,VALID,23.435,INVALID,360.0,VALID,0.0,
2019-10-31, 08:53:06,VALID,918.233,VALID,0.0,VALID,91.865,VALID,272.169,VALID,23.502,INVALID,360.0,VALID,0.0,
2019-10-31, 08:54:06,VALID,918.228,VALID,0.0,VALID,91.457,VALID,257.876,VALID,23.394,INVALID,360.0,VALID,0.0,
2019-10-31, 08:55:06,VALID,918.258,VALID,0.0,VALID,90.253,VALID,229.157,VALID,23.21,INVALID,360.0,VALID,0.0,
2019-10-31, 08:56:06,VALID,918.278,VALID,0.0,VALID,92.108,VALID,221.15,VALID,23.096,INVALID,360.0,VALID,0.0,
2019-10-31, 08:57:06,VALID,918.309,VALID,0.0,VALID,92.137,VALID,225.711,VALID,22.979,INVALID,360.0,VALID,0.0,
2019-10-31, 08:58:06,VALID,918.325,VALID,0.0,VALID,90.583,VALID,236.312,VALID,22.82,INVALID,360.0,VALID,0.0,
2019-10-31, 08:59:06,VALID,918.347,VALID,0.0,VALID,90.889,VALID,258.386,VALID,22.696,VALID,312.0,VALID,0.0,
2019-10-31, 09:00:06,VALID,918.35,VALID,0.0,VALID,92.692,VALID,282.204,VALID,22.714,INVALID,360.0,VALID,0.0,
2019-10-31, 09:01:06,VALID,918.365,VALID,0.0,VALID,91.849,VALID,300.605,VALID,22.642,INVALID,360.0,VALID,0.0,
2019-10-31, 09:02:06,VALID,918.37,VALID,0.0,VALID,93.372,VALID,318.767,VALID,22.643,INVALID,360.0,VALID,0.0,
2019-10-31, 09:03:06,VALID,918.384,VALID,0.0,VALID,92.046,VALID,354.195,VALID,22.53,INVALID,360.0,VALID,0.0,
2019-10-31, 09:04:06,VALID,918.396,VALID,0.0,VALID,93.178,VALID,379.821,VALID,22.465,INVALID,360.0,VALID,0.0,
2019-10-31, 09:05:06,VALID,918.401,VALID,0.0,VALID,94.635,VALID,351.282,VALID,22.587,INVALID,360.0,VALID,0.0,
2019-10-31, 09:06:06,VALID,918.416,VALID,0.0,VALID,94.532,VALID,337.536,VALID,22.768,INVALID,360.0,VALID,0.0,
2019-10-31, 09:07:06,VALID,918.409,VALID,0.0,VALID,91.684,VALID,330.876,VALID,22.764,INVALID,360.0,VALID,0.0,
2019-10-31, 09:08:06,VALID,918.425,VALID,0.0,VALID,90.845,VALID,342.779,VALID,22.696,INVALID,360.0,VALID,0.0,
2019-10-31, 09:09:06,VALID,918.439,VALID,0.0,VALID,90.81,VALID,335.095,VALID,22.508,INVALID,360.0,VALID,0.0,
2019-10-31, 09:10:06,VALID,918.451,VALID,0.0,VALID,92.567,VALID,333.45,VALID,22.59,INVALID,360.0,VALID,0.0,
2019-10-31, 09:11:06,VALID,918.457,VALID,0.0,VALID,93.228,VALID,342.371,VALID,22.729,INVALID,360.0,VALID,0.0,
2019-10-31, 09:12:06,VALID,918.468,VALID,0.0,VALID,93.559,VALID,355.216,VALID,22.861,INVALID,360.0,VALID,0.0,
2019-10-31, 09:13:06,VALID,918.452,VALID,0.0,VALID,90.44,VALID,401.058,VALID,22.77,INVALID,360.0,VALID,0.0,
2019-10-31, 09:14:06,VALID,918.455,VALID,0.0,VALID,90.802,VALID,420.641,VALID,22.686,INVALID,360.0,VALID,0.0,
2019-10-31, 09:15:06,VALID,918.451,VALID,0.0,VALID,91.34,VALID,399.328,VALID,22.737,VALID,324.0,VALID,0.0,
2019-10-31, 09:16:06,VALID,918.455,VALID,0.0,VALID,89.84,VALID,412.621,VALID,22.749,INVALID,360.0,VALID,0.0,
2019-10-31, 09:17:06,VALID,918.443,VALID,0.0,VALID,91.42,VALID,413.492,VALID,22.777,INVALID,360.0,VALID,0.0,
2019-10-31, 09:18:06,VALID,918.414,VALID,0.0,VALID,90.763,VALID,393.113,VALID,22.847,INVALID,360.0,VALID,0.0,
2019-10-31, 09:19:06,VALID,918.429,VALID,0.0,VALID,91.348,VALID,378.845,VALID,22.968,VALID,331.0,VALID,0.0,
2019-10-31, 09:20:06,VALID,918.429,VALID,0.0,VALID,90.891,VALID,372.125,VALID,23.177,INVALID,360.0,VALID,0.0,
2019-10-31, 09:21:06,VALID,918.418,VALID,0.0,VALID,89.784,VALID,363.128,VALID,23.392,INVALID,360.0,VALID,0.0,
2019-10-31, 09:22:06,VALID,918.405,VALID,0.0,VALID,89.171,VALID,370.102,VALID,23.606,INVALID,360.0,VALID,0.0,
2019-10-31, 09:23:06,VALID,918.376,VALID,0.0,VALID,88.306,VALID,381.873,VALID,23.831,INVALID,360.0,VALID,0.0,
2019-10-31, 09:24:06,VALID,918.382,VALID,0.0,VALID,84.754,VALID,385.693,VALID,23.91,INVALID,360.0,VALID,0.0,
2019-10-31, 09:25:06,VALID,918.378,VALID,0.0,VALID,83.637,VALID,397.835,VALID,23.86,INVALID,360.0,VALID,0.0,
2019-10-31, 09:26:06,VALID,918.381,VALID,0.0,VALID,82.277,VALID,427.693,VALID,23.836,VALID,304.0,VALID,0.0,
2019-10-31, 09:27:06,VALID,918.397,VALID,0.0,VALID,83.68,VALID,424.346,VALID,23.83,INVALID,360.0,VALID,0.0,
2019-10-31, 09:28:06,VALID,918.39,VALID,0.0,VALID,82.885,VALID,424.386,VALID,23.798,INVALID,360.0,VALID,0.0,
2019-10-31, 09:29:06,VALID,918.394,VALID,0.0,VALID,83.328,VALID,421.231,VALID,23.802,INVALID,360.0,VALID,0.0,
2019-10-31, 09:30:06,VALID,918.394,VALID,0.0,VALID,82.991,VALID,423.065,VALID,23.91,INVALID,360.0,VALID,0.0,
2019-10-31, 09:31:06,VALID,918.381,VALID,0.0,VALID,83.093,VALID,424.565,VALID,23.79,INVALID,360.0,VALID,0.0,
2019-10-31, 09:32:06,VALID,918.393,VALID,0.0,VALID,85.274,VALID,430.213,VALID,23.819,INVALID,360.0,VALID,0.0,
2019-10-31, 09:33:06,VALID,918.357,VALID,0.0,VALID,83.607,VALID,378.522,VALID,24.013,INVALID,360.0,VALID,0.0,
2019-10-31, 09:34:06,VALID,918.325,VALID,0.0,VALID,82.806,VALID,368.121,VALID,23.962,INVALID,360.0,VALID,0.0,
2019-10-31, 09:35:06,VALID,918.309,VALID,0.0,VALID,84.317,VALID,378.61,VALID,23.804,INVALID,360.0,VALID,0.0,
2019-10-31, 09:36:06,VALID,918.314,VALID,0.0,VALID,84.238,VALID,383.042,VALID,23.657,INVALID,360.0,VALID,0.0,
2019-10-31, 09:37:06,VALID,918.308,VALID,0.0,VALID,84.004,VALID,404.863,VALID,23.51,INVALID,360.0,VALID,0.0,
2019-10-31, 09:38:06,VALID,918.312,VALID,0.0,VALID,84.908,VALID,422.245,VALID,23.466,INVALID,360.0,VALID,0.0,
2019-10-31, 09:39:06,VALID,918.29,VALID,0.0,VALID,85.158,VALID,421.267,VALID,23.434,INVALID,360.0,VALID,0.0,
2019-10-31, 09:40:06,VALID,918.286,VALID,0.0,VALID,82.678,VALID,457.486,VALID,23.624,INVALID,360.0,VALID,0.0,
2019-10-31, 09:41:06,VALID,918.284,VALID,0.0,VALID,82.547,VALID,480.528,VALID,23.873,INVALID,360.0,VALID,0.0,
2019-10-31, 09:42:06,VALID,918.277,VALID,0.0,VALID,82.712,VALID,481.554,VALID,24.06,INVALID,360.0,VALID,0.0,
2019-10-31, 09:43:06,VALID,918.269,VALID,0.0,VALID,83.113,VALID,467.567,VALID,24.325,INVALID,360.0,VALID,0.0,
2019-10-31, 09:44:06,VALID,918.256,VALID,0.0,VALID,81.207,VALID,448.472,VALID,24.272,INVALID,360.0,VALID,0.0,
2019-10-31, 09:45:06,VALID,918.26,VALID,0.0,VALID,82.521,VALID,446.014,VALID,24.303,INVALID,360.0,VALID,0.0,
2019-10-31, 09:46:06,VALID,918.256,VALID,0.0,VALID,83.494,VALID,436.93,VALID,24.532,INVALID,360.0,VALID,0.0,
2019-10-31, 09:47:06,VALID,918.262,VALID,0.0,VALID,81.223,VALID,441.455,VALID,24.518,INVALID,360.0,VALID,0.0,
2019-10-31, 09:48:06,VALID,918.274,VALID,0.0,VALID,83.317,VALID,432.687,VALID,24.45,INVALID,360.0,VALID,0.0,
2019-10-31, 09:49:06,VALID,918.276,VALID,0.0,VALID,83.101,VALID,452.958,VALID,24.495,INVALID,360.0,VALID,0.0,
2019-10-31, 09:50:06,VALID,918.271,VALID,0.0,VALID,80.891,VALID,473.991,VALID,24.418,INVALID,360.0,VALID,0.0,
2019-10-31, 09:51:06,VALID,918.292,VALID,0.0,VALID,80.793,VALID,476.738,VALID,24.373,INVALID,360.0,VALID,0.0,
2019-10-31, 09:52:06,VALID,918.303,VALID,0.0,VALID,81.248,VALID,470.191,VALID,24.18,INVALID,360.0,VALID,0.0,
2019-10-31, 09:53:06,VALID,918.307,VALID,0.0,VALID,82.597,VALID,460.712,VALID,24.19,INVALID,360.0,VALID,0.0,
2019-10-31, 09:54:06,VALID,918.293,VALID,0.0,VALID,82.192,VALID,444.535,VALID,24.257,INVALID,360.0,VALID,0.0,
2019-10-31, 09:55:06,VALID,918.296,VALID,0.0,VALID,81.183,VALID,405.642,VALID,24.253,INVALID,360.0,VALID,0.0,
2019-10-31, 09:56:06,VALID,918.293,VALID,0.0,VALID,82.492,VALID,376.267,VALID,24.288,INVALID,360.0,VALID,0.0,
2019-10-31, 09:57:06,VALID,918.297,VALID,0.0,VALID,82.909,VALID,352.202,VALID,24.199,INVALID,360.0,VALID,0.0,
2019-10-31, 09:58:06,VALID,918.303,VALID,0.0,VALID,83.438,VALID,338.151,VALID,24.169,INVALID,360.0,VALID,0.0,
2019-10-31, 09:59:06,VALID,918.291,VALID,0.0,VALID,82.133,VALID,328.398,VALID,23.978,INVALID,360.0,VALID,0.0,
2019-10-31, 10:00:06,VALID,918.303,VALID,0.0,VALID,81.836,VALID,319.498,VALID,23.67,INVALID,360.0,VALID,0.0,
2019-10-31, 10:01:06,VALID,918.293,VALID,0.0,VALID,82.456,VALID,311.752,VALID,23.464,INVALID,360.0,VALID,0.0,
2019-10-31, 10:02:06,VALID,918.296,VALID,0.0,VALID,84.919,VALID,305.361,VALID,23.484,INVALID,360.0,VALID,0.0,
2019-10-31, 10:03:06,VALID,918.288,VALID,0.0,VALID,84.555,VALID,301.73,VALID,23.531,INVALID,360.0,VALID,0.0,
2019-10-31, 10:04:06,VALID,918.298,VALID,0.0,VALID,85.829,VALID,298.253,VALID,23.494,INVALID,360.0,VALID,0.0,
2019-10-31, 10:05:06,VALID,918.307,VALID,0.0,VALID,85.878,VALID,293.751,VALID,23.516,INVALID,360.0,VALID,0.0,
2019-10-31, 10:06:06,VALID,918.3,VALID,0.0,VALID,86.493,VALID,290.25,VALID,23.62,INVALID,360.0,VALID,0.0,
2019-10-31, 10:07:06,VALID,918.315,VALID,0.0,VALID,86.65,VALID,286.36,VALID,23.839,INVALID,360.0,VALID,0.0,
2019-10-31, 10:08:06,VALID,918.313,VALID,0.0,VALID,85.562,VALID,282.657,VALID,23.977,INVALID,360.0,VALID,0.0,
2019-10-31, 10:09:06,VALID,918.323,VALID,0.0,VALID,84.549,VALID,278.37,VALID,24.027,INVALID,360.0,VALID,0.0,
2019-10-31, 10:10:06,VALID,918.313,VALID,0.0,VALID,84.684,VALID,272.738,VALID,23.985,INVALID,360.0,VALID,0.0,
2019-10-31, 10:11:06,VALID,918.31,VALID,0.0,VALID,83.432,VALID,266.811,VALID,23.888,INVALID,360.0,VALID,0.0,
2019-10-31, 10:12:06,VALID,918.321,VALID,0.0,VALID,83.721,VALID,268.907,VALID,23.785,INVALID,360.0,VALID,0.0,
2019-10-31, 10:13:06,VALID,918.305,VALID,0.0,VALID,85.564,VALID,277.65,VALID,23.669,INVALID,360.0,VALID,0.0,
2019-10-31, 10:14:06,VALID,918.292,VALID,0.0,VALID,85.379,VALID,285.545,VALID,23.47,INVALID,360.0,VALID,0.0,
2019-10-31, 10:15:06,VALID,918.283,VALID,0.0,VALID,87.439,VALID,295.934,VALID,23.376,INVALID,360.0,VALID,0.0,
2019-10-31, 10:16:06,VALID,918.253,VALID,0.0,VALID,87.583,VALID,308.591,VALID,23.41,INVALID,360.0,VALID,0.0,
2019-10-31, 10:17:06,VALID,918.244,VALID,0.0,VALID,88.396,VALID,320.666,VALID,23.515,INVALID,360.0,VALID,0.0,
2019-10-31, 10:18:06,VALID,918.219,VALID,0.0,VALID,87.54,VALID,323.063,VALID,23.658,INVALID,360.0,VALID,0.0,
2019-10-31, 10:19:06,VALID,918.222,VALID,0.0,VALID,86.843,VALID,326.301,VALID,23.845,INVALID,360.0,VALID,0.0,
2019-10-31, 10:20:06,VALID,918.203,VALID,0.0,VALID,85.726,VALID,330.208,VALID,23.997,INVALID,360.0,VALID,0.0,
2019-10-31, 10:21:06,VALID,918.216,VALID,0.0,VALID,86.031,VALID,339.365,VALID,24.018,INVALID,360.0,VALID,0.0,
2019-10-31, 10:22:06,VALID,918.205,VALID,0.0,VALID,86.783,VALID,337.561,VALID,24.197,INVALID,360.0,VALID,0.0,
2019-10-31, 10:23:06,VALID,918.219,VALID,0.0,VALID,86.276,VALID,317.996,VALID,24.403,INVALID,360.0,VALID,0.0,
2019-10-31, 10:24:06,VALID,918.235,VALID,0.0,VALID,85.561,VALID,296.656,VALID,24.446,INVALID,360.0,VALID,0.0,
2019-10-31, 10:25:06,VALID,918.237,VALID,0.0,VALID,84.288,VALID,293.055,VALID,24.364,INVALID,360.0,VALID,0.0,
2019-10-31, 10:26:06,VALID,918.229,VALID,0.0,VALID,83.654,VALID,313.51,VALID,24.262,INVALID,360.0,VALID,0.0,
2019-10-31, 10:27:06,VALID,918.246,VALID,0.0,VALID,84.994,VALID,337.146,VALID,24.227,INVALID,360.0,VALID,0.0,
2019-10-31, 10:28:06,VALID,918.247,VALID,0.0,VALID,84.567,VALID,363.351,VALID,24.167,INVALID,360.0,VALID,0.0,
2019-10-31, 10:29:06,VALID,918.221,VALID,0.0,VALID,82.281,VALID,372.344,VALID,24.042,INVALID,360.0,VALID,0.0,
2019-10-31, 10:30:06,VALID,918.212,VALID,0.0,VALID,83.455,VALID,373.795,VALID,23.792,INVALID,360.0,VALID,0.0,
2019-10-31, 10:31:06,VALID,918.199,VALID,0.0,VALID,85.837,VALID,348.604,VALID,23.744,INVALID,360.0,VALID,0.0,
2019-10-31, 10:32:06,VALID,918.19,VALID,0.0,VALID,87.149,VALID,312.866,VALID,23.828,INVALID,360.0,VALID,0.0,
2019-10-31, 10:33:06,VALID,918.198,VALID,0.0,VALID,86.258,VALID,286.961,VALID,23.98,INVALID,360.0,VALID,0.0,
2019-10-31, 10:34:06,VALID,918.182,VALID,0.0,VALID,84.673,VALID,260.637,VALID,24.074,INVALID,360.0,VALID,0.0,
2019-10-31, 10:35:06,VALID,918.183,VALID,0.0,VALID,84.06,VALID,234.64,VALID,23.973,INVALID,360.0,VALID,0.0,